Météo par heure à Allur Reservior Lake

Ce jour, 14 Mai, Vendredi

Heure Température Précipitation Vent Pression Humidité
00:00 +30°C° 0 mm 4 m/s 752 mmHg 61%
01:00 +30°C° 0 mm 4 m/s 752 mmHg 64%
02:00 +30°C° 0 mm 4 m/s 751 mmHg 68%
03:00 +30°C° 0 mm 4 m/s 751 mmHg 71%
04:00 +30°C° 0 mm 4 m/s 751 mmHg 75%
05:00 +29°C° 0 mm 4 m/s 752 mmHg 78%
06:00 +32°C° 0 mm 4 m/s 752 mmHg 71%
07:00 +34°C° 0 mm 4 m/s 753 mmHg 64%
08:00 +35°C° 0 mm 5 m/s 753 mmHg 57%
09:00 +37°C° 0 mm 5 m/s 753 mmHg 51%
10:00 +40°C° 0 mm 5 m/s 752 mmHg 45%
11:00 +41°C° 0 mm 6 m/s 752 mmHg 39%
12:00 +41°C° 0 mm 6 m/s 752 mmHg 42%
13:00 +40°C° 0 mm 7 m/s 751 mmHg 45%
14:00 +40°C° 0 mm 8 m/s 750 mmHg 48%
15:00 +39°C° 0 mm 8 m/s 750 mmHg 52%
16:00 +38°C° 0 mm 8 m/s 750 mmHg 57%
17:00 +35°C° 0 mm 8 m/s 750 mmHg 62%
18:00 +35°C° 0 mm 8 m/s 751 mmHg 67%
19:00 +34°C° 0 mm 7 m/s 751 mmHg 72%
20:00 +33°C° 0 mm 7 m/s 752 mmHg 78%
21:00 +33°C° 0 mm 7 m/s 752 mmHg 79%
22:00 +33°C° 0 mm 7 m/s 752 mmHg 80%
23:00 +32°C° 0 mm 7 m/s 752 mmHg 81%

Demain, 15 Mai, Samedi

Heure Température Précipitation Vent Pression Humidité
00:00 +32°C° 0 mm 7 m/s 752 mmHg 81%
01:00 +32°C° 0 mm 6 m/s 751 mmHg 80%
02:00 +32°C° 0 mm 6 m/s 751 mmHg 80%
03:00 +32°C° 0 mm 6 m/s 751 mmHg 79%
04:00 +32°C° 0 mm 6 m/s 751 mmHg 78%
05:00 +32°C° 0 mm 6 m/s 751 mmHg 78%
06:00 +33°C° 0 mm 6 m/s 751 mmHg 71%
07:00 +34°C° 0 mm 6 m/s 752 mmHg 64%
08:00 +36°C° 0 mm 7 m/s 753 mmHg 57%
09:00 +38°C° 0 mm 7 m/s 752 mmHg 53%
10:00 +39°C° 0 mm 8 m/s 752 mmHg 49%
11:00 +40°C° 0 mm 9 m/s 752 mmHg 44%
12:00 +40°C° 0 mm 9 m/s 751 mmHg 45%
13:00 +40°C° 0 mm 10 m/s 751 mmHg 46%
14:00 +40°C° 0 mm 10 m/s 750 mmHg 47%
15:00 +38°C° 0 mm 10 m/s 750 mmHg 52%
16:00 +37°C° 0 mm 10 m/s 750 mmHg 57%
17:00 +36°C° 0 mm 10 m/s 750 mmHg 63%
18:00 +34°C° 0 mm 10 m/s 750 mmHg 66%
19:00 +34°C° 0 mm 9 m/s 751 mmHg 69%
20:00 +33°C° 0 mm 9 m/s 752 mmHg 72%
21:00 +34°C° 0.1 mm 8 m/s 752 mmHg 67%
22:00 +34°C° 0.1 mm 8 m/s 752 mmHg 62%
23:00 +34°C° 0.1 mm 7 m/s 751 mmHg 57%

Après-demain, 16 Mai, Dimanche

Heure Température Précipitation Vent Pression Humidité
00:00 +34°C° 0 mm 7 m/s 751 mmHg 57%
01:00 +33°C° 0 mm 7 m/s 751 mmHg 57%
02:00 +33°C° 0 mm 7 m/s 751 mmHg 58%
03:00 +32°C° 0 mm 6 m/s 751 mmHg 60%
04:00 +32°C° 0 mm 6 m/s 751 mmHg 63%
05:00 +32°C° 0 mm 6 m/s 751 mmHg 66%
06:00 +33°C° 0 mm 6 m/s 752 mmHg 60%
07:00 +35°C° 0 mm 7 m/s 752 mmHg 55%
08:00 +36°C° 0 mm 7 m/s 753 mmHg 49%
09:00 +38°C° 0 mm 7 m/s 753 mmHg 45%
10:00 +40°C° 0 mm 7 m/s 753 mmHg 41%
11:00 +41°C° 0 mm 7 m/s 752 mmHg 38%
12:00 +40°C° 0 mm 7 m/s 752 mmHg 40%
13:00 +40°C° 0 mm 8 m/s 751 mmHg 42%
14:00 +40°C° 0 mm 8 m/s 750 mmHg 45%
15:00 +38°C° 0 mm 8 m/s 750 mmHg 51%
16:00 +37°C° 0 mm 8 m/s 750 mmHg 57%
17:00 +34°C° 0 mm 9 m/s 750 mmHg 63%
18:00 +34°C° 0 mm 8 m/s 751 mmHg 68%
19:00 +33°C° 0 mm 8 m/s 752 mmHg 72%
20:00 +33°C° 0 mm 8 m/s 752 mmHg 76%
21:00 +33°C° 0.1 mm 8 m/s 752 mmHg 76%
22:00 +33°C° 0.1 mm 7 m/s 752 mmHg 76%
23:00 +33°C° 0.1 mm 7 m/s 753 mmHg 76%

17 Mai, Lundi

Heure Température Précipitation Vent Pression Humidité
00:00 +33°C° 0.3 mm 7 m/s 752 mmHg 76%
01:00 +32°C° 0.3 mm 7 m/s 752 mmHg 77%
02:00 +32°C° 0.3 mm 6 m/s 751 mmHg 77%
03:00 +32°C° 0.2 mm 6 m/s 751 mmHg 76%
04:00 +32°C° 0.2 mm 6 m/s 751 mmHg 74%
05:00 +32°C° 0.2 mm 6 m/s 752 mmHg 72%
06:00 +33°C° 0 mm 5 m/s 752 mmHg 65%
07:00 +35°C° 0 mm 5 m/s 753 mmHg 57%
08:00 +37°C° 0 mm 5 m/s 754 mmHg 49%
09:00 +39°C° 0 mm 6 m/s 754 mmHg 45%
10:00 +40°C° 0 mm 6 m/s 753 mmHg 40%
11:00 +42°C° 0 mm 6 m/s 753 mmHg 36%
12:00 +41°C° 0 mm 7 m/s 752 mmHg 38%
13:00 +41°C° 0 mm 8 m/s 752 mmHg 41%
14:00 +40°C° 0 mm 9 m/s 751 mmHg 43%
15:00 +39°C° 0 mm 9 m/s 751 mmHg 49%
16:00 +38°C° 0 mm 9 m/s 751 mmHg 55%
17:00 +35°C° 0 mm 9 m/s 751 mmHg 60%
18:00 +35°C° 0 mm 8 m/s 751 mmHg 65%
19:00 +34°C° 0 mm 8 m/s 752 mmHg 70%
20:00 +33°C° 0 mm 8 m/s 752 mmHg 74%
21:00 +33°C° 0.2 mm 7 m/s 753 mmHg 75%
22:00 +33°C° 0.2 mm 7 m/s 753 mmHg 75%
23:00 +33°C° 0.2 mm 7 m/s 753 mmHg 75%

18 Mai, Mardi

Heure Température Précipitation Vent Pression Humidité
00:00 +33°C° 0.1 mm 6 m/s 753 mmHg 74%
01:00 +32°C° 0.1 mm 6 m/s 752 mmHg 73%
02:00 +32°C° 0.1 mm 6 m/s 752 mmHg 72%
03:00 +32°C° 0 mm 6 m/s 752 mmHg 72%
04:00 +32°C° 0 mm 6 m/s 752 mmHg 71%
05:00 +32°C° 0 mm 6 m/s 752 mmHg 71%
06:00 +34°C° 0 mm 6 m/s 753 mmHg 64%
07:00 +35°C° 0 mm 6 m/s 753 mmHg 58%
08:00 +36°C° 0 mm 7 m/s 754 mmHg 51%
09:00 +39°C° 0 mm 7 m/s 753 mmHg 47%
10:00 +40°C° 0 mm 7 m/s 753 mmHg 44%
11:00 +43°C° 0 mm 7 m/s 753 mmHg 40%
12:00 +41°C° 0 mm 8 m/s 752 mmHg 43%
13:00 +41°C° 0 mm 8 m/s 751 mmHg 45%
14:00 +40°C° 0 mm 9 m/s 751 mmHg 48%
15:00 +39°C° 0 mm 9 m/s 751 mmHg 51%
16:00 +38°C° 0 mm 9 m/s 751 mmHg 55%
17:00 +37°C° 0 mm 9 m/s 751 mmHg 59%
18:00 +35°C° 0 mm 9 m/s 751 mmHg 64%
19:00 +34°C° 0 mm 9 m/s 752 mmHg 69%
20:00 +33°C° 0 mm 8 m/s 753 mmHg 75%
21:00 +33°C° 0 mm 8 m/s 753 mmHg 75%
22:00 +33°C° 0 mm 8 m/s 753 mmHg 74%
23:00 +33°C° 0 mm 8 m/s 753 mmHg 74%

19 Mai, Mercredi

Heure Température Précipitation Vent Pression Humidité
00:00 +33°C° 0 mm 8 m/s 753 mmHg 72%
01:00 +33°C° 0 mm 7 m/s 752 mmHg 70%
02:00 +33°C° 0 mm 7 m/s 752 mmHg 69%
03:00 +32°C° 0 mm 6 m/s 752 mmHg 70%
04:00 +32°C° 0 mm 6 m/s 752 mmHg 71%
05:00 +32°C° 0 mm 6 m/s 753 mmHg 72%
06:00 +34°C° 0 mm 6 m/s 753 mmHg 65%
07:00 +35°C° 0 mm 6 m/s 753 mmHg 57%
08:00 +38°C° 0 mm 7 m/s 754 mmHg 50%
09:00 +39°C° 0 mm 7 m/s 753 mmHg 45%
10:00 +41°C° 0 mm 7 m/s 753 mmHg 41%
11:00 +44°C° 0 mm 7 m/s 752 mmHg 36%
12:00 +43°C° 0 mm 8 m/s 752 mmHg 38%
13:00 +43°C° 0 mm 8 m/s 751 mmHg 41%
14:00 +42°C° 0 mm 9 m/s 750 mmHg 44%
15:00 +40°C° 0 mm 9 m/s 750 mmHg 49%
16:00 +38°C° 0 mm 9 m/s 750 mmHg 54%
17:00 +37°C° 0 mm 9 m/s 750 mmHg 58%
18:00 +35°C° 0 mm 9 m/s 751 mmHg 64%
19:00 +34°C° 0 mm 9 m/s 751 mmHg 70%
20:00 +33°C° 0 mm 9 m/s 752 mmHg 75%
21:00 +33°C° 0 mm 8 m/s 752 mmHg 75%
22:00 +33°C° 0 mm 8 m/s 752 mmHg 74%
23:00 +33°C° 0 mm 7 m/s 752 mmHg 74%
Voir plus

Nous avons besoin de votre consentement

Meteoprog et ses fournisseurs de services peuvent stocker et accéder à des données personnelles telles que des cookies, des identifiants d'appareils ou d'autres technologies similaires sur votre appareil et traiter ces données pour personnaliser le contenu et les publicités, ainsi que pour fournir des fonctionnalités de médias sociaux et analyser le trafic.

  • Stocker et/ou accéder à des informations sur votre appareil

    Des cookies, des identifiants d'appareils ou d'autres informations peuvent être stockés ou accessibles sur votre appareil aux fins indiquées ci-dessus.

  • Annonces et contenus personnalisés, mesure des annonces et des contenus, connaissance de l'audience et développement de produits

    Les annonces et le contenu peuvent être personnalisés en fonction d'un profil. D'autres données peuvent être ajoutées pour mieux personnaliser les annonces et le contenu. Les performances des publicités et du contenu peuvent être mesurées. Il est possible d'obtenir des informations sur le public qui a vu les publicités et le contenu. Ces données peuvent être utilisées pour développer ou améliorer l'expérience de l'utilisateur, les systèmes et les logiciels.

En cliquant sur "J'accepte", vous autorisez l'utilisation de cookies, des identifiants d'appareils, des balises web ou d'autres technologies similaires. Vos paramètres peuvent être modifiés dans le navigateur de votre appareil.

Dans certains cas, des intérêts légitimes peuvent être invoqués plutôt qu'un consentement. Vous pouvez en savoir plus à ce sujet dans notre Politique de confidentialité et de cookies.